Home > Weather > Montpelier > Past weeks

Flag for U.S.A. Weather for the Past 2 Weeks in Montpelier, Vermont, U.S.A.

Now
33 °F

Clear.


Feels Like: 23 °F
Forecast: 26 / 36 °F
Wind: 15 mph from West

Location: Knapp State Airport

Current Time: Feb 7, 2016 at 1:15:19 AM

Latest Report: Feb 6, 2016 at 11:51 PM


Visibility: 10 mi

Pressure: 30.13 "Hg

Humidity: 52%

Dew point: 17 °F

Location of MontpelierLocation

Historic Weather in Montpelier — Graph

°F

Montpelier Temperature Yesterday

Maximum temperature yesterday: 35 °F (at 12:51 PM)
Minimum temperature yesterday: 14 °F (at 1:51 AM)
Average temperature yesterday: 28 °F

High & Low Weather Summary for the Past Weeks

 TemperatureHumidityPressure
High54 °F (Feb 1, 6:51 AM)100% (Feb 3, 10:58 PM)30.45 "Hg (Feb 3, 10:58 PM)
Low-4 °F (Jan 24, 5:51 AM)45% (Jan 31, 11:51 AM)29.42 "Hg (Jan 29, 2:01 PM)
Average28 °F71%30.00 "Hg
* Reported Jan 22 11:51 PM — Feb 6 11:51 PM, Montpelier, Weather by CustomWeather, © 2016

Note: Actual official high and low records may vary slightly from our data, if they occured in-between our weather recording intervals... More about our weather records

Advertising

Montpelier Weather History for the Previous 24 Hours

 ConditionsComfort  
Time TempWeatherWind HumidityBarometerVisibility
11:51 PM
Sat, Feb 6
33 °FClear.15 mph52%30.13 "Hg10 mi
10:51 PM33 °FClear.12 mph54%30.14 "Hg10 mi
9:51 PM33 °FClear.8 mph52%30.15 "Hg10 mi
8:51 PM33 °FClear.13 mph52%30.16 "Hg10 mi
7:51 PM33 °FOvercast.14 mph52%30.18 "Hg10 mi
6:51 PM32 °FMostly cloudy.8 mph56%30.19 "Hg10 mi
5:51 PM32 °FOvercast.10 mph59%30.19 "Hg10 mi
4:51 PM33 °FOvercast.10 mph56%30.19 "Hg10 mi
3:51 PM34 °FMostly cloudy.12 mph54%30.19 "Hg10 mi
2:51 PM35 °FOvercast.9 mph50%30.18 "Hg10 mi
1:51 PM35 °FMostly cloudy.8 mph50%30.18 "Hg10 mi
12:51 PM35 °FMostly cloudy.10 mph50%30.21 "Hg10 mi
11:51 AM33 °FMore clouds than sun.10 mph54%30.24 "Hg10 mi
10:51 AM29 °FPartly sunny.12 mph64%30.28 "Hg10 mi
9:51 AM27 °FMostly cloudy.13 mph69%30.29 "Hg10 mi
8:51 AM25 °FCloudy.5 mph69%30.31 "Hg10 mi
7:51 AM22 °FPartly sunny.9 mph72%30.32 "Hg10 mi
6:51 AM22 °FClear.5 mph68%30.30 "Hg10 mi
5:51 AM22 °FPassing clouds.5 mph62%30.29 "Hg10 mi
4:51 AM19 °FOvercast.No wind77%30.29 "Hg10 mi
3:51 AM19 °FOvercast.No wind77%30.28 "Hg10 mi
2:51 AM16 °FPassing clouds.3 mph77%30.29 "Hg10 mi
1:51 AM14 °FClear.5 mph84%30.29 "Hg10 mi
Weather by CustomWeather, © 2016

See weather overviewHow to use our weather pages